Location: Buchberg
(46.9333°N, 15.8500°E)
Time: 03:47:46
(UTC+00:00)

BREEZE-M DEB (TANK) - Pass Details

Date: 14 July 2020
Orbit: 275 x 20501 km, 49.2° (Epoch: 11 August)

Event Time Altitude Azimuth Distance (km) Brightness Sun altitude
Exits shadow 01:57:26 - 282° (WNW) 2,313 5.7 -10.9°
Reaches altitude 10° 01:58:48 10° 272° (W) 1,757 5.0 -10.8°
Maximum altitude 02:02:03 36° 202° (SSW) 1,401 4.4 -10.4°
Drops below altitude 10° 02:12:22 10° 141° (SE) 5,617 7.8 -9.2°
Sets 02:21:42 0° 137° (SE) 9,266 9.0 -8.1°
